Regional Weather Roundup
Issued by NWS

Home | Current Version | Previous Version | Text Only | Print | Product List | Glossary On
Versions: 1 2 3 4 5 6 7 8 9 10 11 12 13 14 15 16 17 18 19 20 21 22 23 24 25 26 27 28
000
ASUS44 KBMX 250510
RWRAL

ALABAMA REGIONAL WEATHER ROUNDUP
NATIONAL WEATHER SERVICE BIRMINGHAM AL
1200 AM CDT SAT JUN 25 2016

NOTE: "FAIR" INDICATES FEW OR NO CLOUDS BELOW 12,000 FEET
WITH NO SIGNIFICANT WEATHER AND/OR OBSTRUCTIONS TO VISIBILITY.

THE REMARK "TC" DENOTES TEMPERATURE IN DEGREES CELSIUS.

ALZ001>011-014-016>018-020-250600-
NORTH ALABAMA

CITY           SKY/WX    TMP DP  RH WIND       PRES   REMARKS
MUSCLE SHOALS  CLEAR     78  73  84 CALM      30.06R
HUNTSVILLE     PTCLDY    78  68  71 S3        30.05R
DECATUR        PTCLDY    77  72  84 CALM      30.06R
HALEYVILLE     FAIR      75  73  93 CALM      30.09R
GADSDEN        PTCLDY    76  73  91 CALM      30.06R
$$

ALZ012-013-022-023-030>036-040>044-250600-
WEST CENTRAL ALABAMA

CITY           SKY/WX    TMP DP  RH WIND       PRES   REMARKS
TUSCALOOSA     CLEAR     78  77  96 CALM      30.04R
$$

ALZ015-024>027-033>036-040>044-250600-
CENTRAL ALABAMA

CITY           SKY/WX    TMP DP  RH WIND       PRES   REMARKS
BIRMINGHAM     CLEAR     82  73  74 CALM      30.08R
MONTGOMERY     CLEAR     81  72  74 SW5       30.04R
SHELBY CO ARPT CLEAR     77  72  84 CALM      30.06R
MAXWELL AFB    CLEAR     79  74  87 CALM      30.04R
GREENVILLE     FAIR      76  71  85 CALM      30.06R
$$

ALZ019-021-028-029-037-038-045>048-250600-
EAST CENTRAL ALABAMA

CITY           SKY/WX    TMP DP  RH WIND       PRES   REMARKS
ANNISTON       PTCLDY    77  70  79 CALM      30.06R
ALEXANDER CITY CLEAR     75  75 100 CALM      30.06S
AUBURN         CLEAR     83  71  67 W3        30.08R
$$

ALZ051>064-250600-
SOUTHWEST ALABAMA

CITY           SKY/WX    TMP DP  RH WIND       PRES   REMARKS
MOBILE         CLEAR     76  71  85 SW3       30.08S
BROOKLEY FIELD CLEAR     78  72  81 CALM      30.08S
EVERGREEN      CLEAR     76  70  82 CALM      30.07R
$$

ALZ049-050-065>069-250600-
SOUTHEAST ALABAMA

CITY           SKY/WX    TMP DP  RH WIND       PRES   REMARKS
DOTHAN         CLEAR     79  71  76 SW9       30.10S
OZARK          CLEAR     78  72  83 SW5       30.06S
TROY           CLEAR     76  73  91 CALM      30.07R
EUFAULA        FAIR      76  71  85 CALM      30.04R
$$




USA.gov is the U.S. government's official web portal to all federal, state and local government web resources and services.